COSMOS 249 DEB, 3695

Orbit data source: Space-Track

COSMOS 249 DEB, 3695 is space debris in LEO originally from a launch on Sun, 20 Oct 1968 UTC launched from the Tyuratam Missile And Space Complex (TTMTR). Debris objects in space refer to the collection of defunct objects orbiting the Earth. Examples of debris include non-operational satellites, rocket bodies, and fragments generated from explosions, collisions, or faulty payload assembly.

Loading next visibility...
Identifier
3695, 1968-091AL
Orbit
LEO
Country
Flag of CISCIS
Related business
Manufacturer
Unknown
Mission
Spacecraft
Bus & Motor
Unknown
Mass
Unknown
Launch date (UTC)
1968-10-20 (58 years ago)
Launch vehicle
Unknown
Launch site
Tyuratam Missile And Space Complex (TTMTR)
Object type
Payload
Rocket body
Debris
Shape & HBR
Unknown shape, 0.1 m
Radar Cross Section
Small (<0.1 m²)

Expand to show TLE details & history
Last TLE update: 2 days ago

TLE from 2 days ago
0 COSMOS 249 DEB
1 03695U 68091AL  26128.01230425  .00000857  00000-0  10301-2 0  9990
2 03695  62.2430 351.4389 0641262 226.9647 127.5919 13.07240039666946
Epoch: 2026-05-08T00:17Z
TLE epoch observation values (Epoch: 2026-05-08T00:17:43.087Z)
Latitude
-0.00001°
Longitude
121.15916°
Altitude
1,551.803 km
Speed
6.943 km/s
True Right ascension
23h 25m 45s
True Declination
0° 00' 00"
Sunlit
Object was in daylight at epoch
Visualization orbit readout
Latitude
Unknown
Longitude
Unknown
Altitude
Unknown
Speed
Unknown
Apparent Right ascension
Unknown
Apparent Declination
Unknown
Sunlit
N/A
Visualization observer readout
Local Sidereal Time
07:57:27
Azimuth
Unknown
Elevation
Unknown
Doppler factor
Unknown
Orbital elements
Apogee altitude
1,720.905 km
Perigee altitude
744.779 km
Semi-major axis
7,610.979 km
Eccentricity
0.06413
Inclination
62.243°
RAAN
351.4389°
Arg. of periapsis
226.9647°
True anomaly
133.13402°
Mean anomaly
127.5919°
Eccentric anomaly
130.39032°
Mean motion
3.26875 °/min
Orbital period
110.13 mins
BSTAR
0.0010301
Loading maneuver chart data...
Computing Atmospheric mass density...

Documentation

Showing up to 5 results
|